Location: *
(38.4303°S, 157.0822°W)
Time: 16:25:25
(UTC+00:00)

DMSP B5D2-2 - Pass Details

Date: 11 August 2024
Orbit: 787 x 802 km, 98.3° (Epoch: 06 September)

Event Time Altitude Azimuth Distance (km) Brightness Sun altitude
Rises 13:58:20 0° 152° (SSE) 3,343 7.8 -39.4°
Reaches altitude 10° 14:01:15 10° 136° (SE) 2,401 7.1 -38.9°
Maximum altitude 14:05:16 22° 87° (E) 1,716 6.3 -38.1°
Enters shadow 14:09:13 10° 37° (NE) 2,367 6.8 -37.3°
